Weather Roundup
Issued by NWS Chicago, IL

Home | Current Version | Previous Version | Graphics & Text | Print | Product List | Glossary On
Versions: 1 2 3 4 5 6 7 8 9 10 11 12 13 14 15 16 17 18 19 20 21 22 23 24 25 26 27 28 29 30 31 32 33 34 35 36 37 38 39 40 41 42 43 44 45 46 47 48 49 50
000
NZUS59 KLOT 302103
HRRLOT

CHICAGO AREA WEATHER ROUNDUP
NATIONAL WEATHER SERVICE CHICAGO/ROMEOVILLE IL
400 PM CDT MON MAY 30 2016

NOTE: "FAIR" INDICATES FEW OR NO CLOUDS BELOW 12,000 FEET WITH NO
SIGNIFICANT WEATHER AND/OR OBSTRUCTIONS TO VISIBILITY.

* THESE STATIONS ARE NOT UNDER NWS QUALITY CONTROL. THEY ALSO MAY NOT
  REPORT WEATHER SUCH AS PRECIPITATION OR FOG.

ILZ005-006-012>014-019>023-302200-
NORTHEAST ILLINOIS

CITY           SKY/WX    TMP DP  RH WIND       PRES   REMARKS
OHARE          MOSUNNY   87  51  28 NW8       29.96F HX  85
MIDWAY         MOSUNNY   84  57  39 E12       29.96F HX  83
AURORA         SUNNY     87  57  35 W10       29.97F HX  86
LANSING*       SUNNY     84  57  39 N9        29.97F HX  83
WAUKEGAN       SUNNY     75  58  55 SE9       29.98S
DUPAGE AIRPORT SUNNY     86  52  30 NW12      29.97F HX  84
WHEELING       MOSUNNY   82  58  43 VRB3      29.97F HX  82
$$

WIZ051-052-058>065-066-070>072-302200-
SOUTHEAST WISCONSIN

CITY           SKY/WX    TMP DP  RH WIND       PRES   REMARKS
MILWAUKEE      MOSUNNY   73  59  61 E12       29.99S
KENOSHA*       MOSUNNY   78  60  53 E12       29.99S
RACINE*        SUNNY     74  58  57 SE9       30.01R
BURLINGTON     SUNNY     82  45  27 CALM      29.98F HX  80
WAUKESHA       MOSUNNY   79  50  36 NW12      30.00S
$$

INZ001>003-010>013-019-020-302200-
NORTHWEST INDIANA

CITY           SKY/WX    TMP DP  RH WIND       PRES   REMARKS
GARY*          MOSUNNY   81  64  57 E12       29.98F HX  82
MICHIGAN CITY* NOT AVBL
RENSSELAER*    NOT AVBL
VALPARAISO     SUNNY     86  58  38 VRB6      29.98F HX  85
$$

LMZ740>746-302200-
SOUTHERN LAKE MICHIGAN

STATION/POSITION TIME  SKY/WX   TEMP WIND        PRES    VSBY
                                AIR  DIR/SP/G
                 (UTC)          (F)  (DEG/KT/KT) (MB)    (MI)
HARRISON CRIB    2000            65  100/  5/  6   N/A
BURNHAM HARBOR   2100            69  110/  2/  4   N/A
CALUMET HARBOR   2000            68   50/  8/ 10 1015.3F
BURNS HARBOR     2000            67   80/ 11/ 12 1016.3S
MICHIGAN CITY    2000            66   30/  9/  9   N/A
$$

ABBREVIATIONS USED IN REMARKS
   TC - TEMPERATURE IN CELSIUS
  WCI - WIND CHILL INDEX
   HX - HEAT INDEX
  VSB - VISIBILITY
$$




USA.gov is the U.S. government's official web portal to all federal, state and local government web resources and services.